�N����,����,�~����,�C��,���x,�C��,����,���ϕ���,�ő�u�ԕ���,�ő厞����,���˗�,�I�_���x,�n�����x,�ő啗���N��,DTYPE
"16/05/05","00:10",0.0,17.3,51.9,1004.3,307.7,2.1,3.6,330.4,0.00,7.4,16.9,"00:04:40",1
"16/05/05","00:20",0.0,17.5,50.2,1004.3,323.6,2.2,6.0,14.8,0.00,7.1,16.6,"00:16:48",1
"16/05/05","00:30",0.0,17.0,52.2,1004.5,329.9,2.0,4.2,347.2,0.00,7.2,16.7,"00:24:56",1
"16/05/05","00:40",0.0,16.1,55.0,1004.3,316.1,1.3,2.6,336.9,0.00,7.1,16.6,"00:36:16",1
"16/05/05","00:50",0.0,15.6,57.2,1004.8,287.6,1.2,1.8,327.6,0.00,7.2,16.6,"00:43:04",1
"16/05/05","01:00",0.0,15.5,57.5,1004.3,310.5,1.5,2.9,0.8,0.00,7.2,16.6,"00:53:28",1
"16/05/05","01:10",0.0,15.8,57.3,1004.8,302.0,1.3,2.2,346.5,0.00,7.4,16.5,"01:00:40",1
"16/05/05","01:20",0.0,16.0,56.8,1004.5,295.1,1.3,2.2,313.8,0.00,7.5,16.6,"01:16:48",1
"16/05/05","01:30",0.0,16.1,56.9,1004.5,308.5,1.2,2.2,339.8,0.00,7.6,16.5,"01:21:12",1
"16/05/05","01:40",0.0,16.4,56.7,1004.8,310.4,1.6,2.7,338.1,0.00,7.8,16.5,"01:36:00",1
"16/05/05","01:50",0.0,16.5,56.4,1004.3,315.0,1.5,2.5,345.7,0.00,7.8,16.4,"01:44:32",1
"16/05/05","02:00",0.0,16.5,56.4,1004.8,318.3,1.8,2.9,335.3,0.00,7.8,16.3,"01:54:16",1
"16/05/05","02:10",0.0,16.3,56.6,1005.0,319.1,1.6,2.7,339.0,0.00,7.7,16.5,"02:04:40",1
"16/05/05","02:20",0.0,15.7,59.9,1004.8,310.6,1.3,2.1,337.7,0.00,8.0,16.4,"02:13:12",1
"16/05/05","02:30",0.0,14.8,63.0,1004.8,298.2,1.2,1.9,320.4,0.00,7.9,16.3,"02:28:24",1
"16/05/05","02:40",0.0,14.2,65.5,1004.8,298.9,1.3,2.0,325.7,0.00,7.9,16.2,"02:34:48",1
"16/05/05","02:50",0.0,13.7,68.2,1004.8,290.3,1.3,2.1,293.8,0.00,8.0,16.3,"02:48:48",1
"16/05/05","03:00",0.0,13.6,69.4,1004.8,288.6,1.5,2.4,314.9,0.00,8.2,16.1,"02:54:48",1
"16/05/05","03:10",0.0,13.4,70.3,1005.0,300.0,1.5,2.5,325.5,0.00,8.1,16.1,"03:01:52",1
"16/05/05","03:20",0.0,13.4,69.9,1005.2,300.5,1.6,2.5,316.8,0.00,8.1,16.1,"03:13:20",1
"16/05/05","03:30",0.0,13.4,70.8,1005.5,309.2,1.3,2.4,331.8,0.00,8.3,15.9,"03:20:08",1
"16/05/05","03:40",0.0,13.4,71.0,1005.2,316.6,1.5,2.2,313.1,0.00,8.3,15.9,"03:37:12",1
"16/05/05","03:50",0.0,13.3,71.0,1005.7,310.6,1.6,2.0,326.8,0.00,8.2,16.1,"03:45:44",1
"16/05/05","04:00",0.0,13.2,71.7,1005.7,327.7,1.6,2.6,331.0,0.00,8.2,15.9,"03:55:20",1
"16/05/05","04:10",0.0,13.2,72.1,1005.7,322.1,1.6,2.6,334.9,0.00,8.3,15.8,"04:00:40",1
"16/05/05","04:20",0.0,13.0,72.7,1006.0,328.5,1.6,2.5,339.2,0.00,8.3,15.9,"04:10:32",1
"16/05/05","04:30",0.0,12.6,73.5,1006.0,317.8,1.5,2.2,312.9,0.00,8.0,15.8,"04:26:08",1
"16/05/05","04:40",0.0,12.5,74.5,1006.0,294.6,1.5,2.9,303.6,0.00,8.1,15.7,"04:31:36",1
"16/05/05","04:50",0.0,12.4,74.8,1006.2,298.4,1.3,2.0,317.5,0.00,8.1,15.7,"04:43:36",1
"16/05/05","05:00",0.0,12.3,75.5,1006.0,287.7,1.3,2.2,325.4,0.00,8.1,15.7,"04:53:40",1
"16/05/05","05:10",0.0,12.3,75.8,1006.2,285.3,1.3,2.0,336.3,0.00,8.2,15.7,"05:05:56",1
"16/05/05","05:20",0.0,12.2,76.1,1006.2,298.3,1.3,1.6,296.3,0.00,8.2,15.7,"05:10:08",1
"16/05/05","05:30",0.0,12.0,77.0,1006.4,302.9,0.7,1.9,323.8,0.00,8.1,15.5,"05:21:44",1
"16/05/05","05:40",0.0,12.0,78.6,1006.7,298.8,1.0,1.6,303.9,0.00,8.4,15.5,"05:32:24",1
"16/05/05","05:50",0.0,12.0,79.6,1007.1,296.9,1.0,1.8,312.0,0.00,8.6,15.5,"05:45:36",1
"16/05/05","06:00",0.0,12.7,79.1,1006.7,300.3,0.8,2.0,317.5,0.02,9.2,15.4,"05:53:20",1
"16/05/05","06:10",0.0,13.7,76.8,1007.6,316.3,1.1,1.7,322.2,0.03,9.7,15.4,"06:08:48",1
"16/05/05","06:20",0.0,14.9,73.6,1007.4,307.7,1.0,1.4,323.5,0.04,10.3,15.5,"06:15:20",1
"16/05/05","06:30",0.0,15.8,71.1,1007.6,332.3,1.0,1.8,332.1,0.06,10.6,15.4,"06:29:36",1
"16/05/05","06:40",0.0,16.7,69.0,1008.1,338.8,1.0,2.1,339.4,0.08,11.0,15.5,"06:32:40",1
"16/05/05","06:50",0.0,18.2,57.1,1008.3,288.8,0.8,1.6,241.0,0.10,9.6,15.4,"06:45:28",1
"16/05/05","07:00",0.0,18.8,53.5,1008.6,296.8,1.2,2.6,328.3,0.13,9.2,15.5,"06:50:40",1
"16/05/05","07:10",0.0,19.0,51.0,1008.8,318.4,1.7,3.1,324.8,0.15,8.7,15.5,"07:03:44",1
"16/05/05","07:20",0.0,19.3,51.8,1009.0,285.7,1.5,2.4,234.8,0.18,9.2,15.6,"07:18:24",1
"16/05/05","07:30",0.0,19.5,51.3,1009.0,288.0,1.5,3.3,230.0,0.21,9.2,15.7,"07:28:00",1
"16/05/05","07:40",0.0,20.0,47.7,1009.3,316.9,1.6,3.4,299.5,0.23,8.6,15.7,"07:37:44",1
"16/05/05","07:50",0.0,20.2,48.0,1008.8,302.9,1.6,4.5,348.5,0.26,8.9,15.9,"07:45:28",1
"16/05/05","08:00",0.0,20.3,44.2,1009.0,322.6,2.6,4.8,332.4,0.29,7.8,16.0,"07:54:08",1
"16/05/05","08:10",0.0,20.5,41.8,1008.6,314.5,1.8,4.0,341.9,0.32,7.1,16.0,"08:05:28",1
"16/05/05","08:20",0.0,20.8,42.5,1008.6,290.0,2.2,4.4,229.9,0.34,7.6,16.3,"08:17:36",1
"16/05/05","08:30",0.0,21.1,40.6,1008.8,287.0,1.7,5.0,229.5,0.37,7.2,16.2,"08:26:08",1
"16/05/05","08:40",0.0,21.3,40.6,1008.6,265.1,1.7,4.1,230.5,0.39,7.4,16.3,"08:34:40",1
"16/05/05","08:50",0.0,21.3,40.5,1008.6,269.8,1.6,4.0,240.4,0.41,7.4,16.4,"08:46:16",1
"16/05/05","09:00",0.0,21.8,37.8,1009.0,268.0,1.3,3.2,10.6,0.43,6.8,16.6,"08:59:28",1
"16/05/05","09:10",0.0,21.9,38.6,1008.8,274.0,1.6,4.2,354.6,0.45,7.2,16.6,"09:01:28",1
"16/05/05","09:20",0.0,22.3,35.7,1008.6,269.9,1.1,3.1,245.1,0.44,6.4,16.9,"09:13:04",1
"16/05/05","09:30",0.0,22.1,36.0,1008.6,326.2,2.3,6.2,351.9,0.47,6.4,16.8,"09:26:40",1
"16/05/05","09:40",0.0,22.8,33.2,1008.8,345.1,1.7,3.7,332.4,0.51,5.8,17.2,"09:37:52",1
"16/05/05","09:50",0.0,22.7,34.0,1009.0,316.9,1.3,3.5,338.0,0.52,6.1,17.2,"09:42:56",1
"16/05/05","10:00",0.0,22.9,34.8,1008.6,327.2,1.7,4.7,353.7,0.54,6.6,17.3,"09:54:56",1
"16/05/05","10:10",0.0,23.0,35.3,1008.6,320.9,2.0,5.0,357.4,0.55,6.9,17.6,"10:01:36",1
"16/05/05","10:20",0.0,23.0,38.3,1008.8,286.2,1.6,4.1,336.5,0.57,8.1,17.8,"10:11:44",1
"16/05/05","10:30",0.0,23.3,36.1,1008.6,290.6,1.5,3.4,264.9,0.58,7.5,18.1,"10:23:12",1
"16/05/05","10:40",0.0,23.6,33.5,1008.8,294.7,1.1,2.6,343.1,0.59,6.7,18.1,"10:32:08",1
"16/05/05","10:50",0.0,23.8,33.5,1008.8,268.7,1.1,2.8,335.1,0.60,6.8,18.5,"10:46:56",1
"16/05/05","11:00",0.0,23.9,32.7,1008.1,257.4,1.1,3.2,226.9,0.61,6.6,18.7,"10:56:24",1
"16/05/05","11:10",0.0,23.8,32.9,1007.8,263.8,1.8,5.2,218.0,0.62,6.6,18.7,"11:09:28",1
"16/05/05","11:20",0.0,24.3,30.5,1007.8,274.5,1.7,3.4,328.7,0.62,5.9,19.0,"11:18:40",1
"16/05/05","11:30",0.0,24.0,32.4,1007.8,269.0,2.5,5.1,287.6,0.63,6.5,19.2,"11:21:04",1
"16/05/05","11:40",0.0,24.0,31.1,1008.1,262.5,2.1,4.4,233.3,0.63,5.9,19.1,"11:33:20",1
"16/05/05","11:50",0.0,24.5,31.9,1007.6,280.7,1.7,3.3,343.3,0.63,6.7,19.7,"11:48:00",1
"16/05/05","12:00",0.0,24.7,32.1,1008.1,281.2,1.6,3.1,294.0,0.63,7.0,20.0,"11:50:16",1
"16/05/05","12:10",0.0,24.6,32.2,1007.8,345.2,2.5,6.7,349.2,0.63,7.0,19.9,"12:04:24",1
"16/05/05","12:20",0.0,24.8,31.9,1007.6,333.4,3.0,8.2,348.3,0.63,7.0,20.0,"12:14:16",1
"16/05/05","12:30",0.0,24.9,31.9,1008.1,342.5,2.5,6.0,326.5,0.62,7.1,20.3,"12:21:20",1
"16/05/05","12:40",0.0,24.5,33.4,1008.1,335.1,3.0,6.4,352.1,0.62,7.4,20.0,"12:37:44",1
"16/05/05","12:50",0.0,25.0,32.6,1007.8,310.0,2.2,5.6,348.7,0.62,7.5,20.6,"12:40:02",1
"16/05/05","13:00",0.0,25.0,31.4,1007.8,311.2,1.8,4.5,352.6,0.61,6.9,20.5,"12:52:16",1
"16/05/05","13:10",0.0,25.7,31.7,1008.1,332.9,1.8,4.9,22.4,0.60,7.7,20.8,"13:03:20",1
"16/05/05","13:20",0.0,25.6,34.5,1007.8,314.4,1.8,5.4,340.6,0.59,8.8,20.6,"13:10:40",1
"16/05/05","13:30",0.0,25.4,32.7,1007.8,311.0,1.6,4.1,340.4,0.59,7.9,20.7,"13:22:48",1
"16/05/05","13:40",0.0,24.9,31.6,1008.1,320.7,3.2,6.8,346.0,0.57,6.9,20.9,"13:31:04",1
"16/05/05","13:50",0.0,25.4,32.8,1008.1,328.5,2.6,5.4,308.2,0.56,7.9,20.9,"13:44:48",1
"16/05/05","14:00",0.0,25.1,28.7,1007.8,286.5,2.0,4.9,351.9,0.54,5.7,21.0,"13:56:08",1
"16/05/05","14:10",0.0,25.2,27.6,1008.1,309.5,2.3,4.7,319.6,0.51,5.2,20.9,"14:03:28",1
"16/05/05","14:20",0.0,24.8,28.9,1007.6,299.9,2.6,4.9,348.7,0.50,5.6,21.1,"14:13:52",1
"16/05/05","14:30",0.0,25.1,31.2,1007.8,328.3,2.5,5.1,350.3,0.48,6.9,21.1,"14:27:44",1
"16/05/05","14:40",0.0,25.3,27.8,1007.8,322.4,2.2,5.1,352.9,0.46,5.4,21.0,"14:30:32",1
"16/05/05","14:50",0.0,25.3,28.4,1007.6,346.3,2.6,5.5,348.5,0.46,5.7,21.3,"14:44:40",1
"16/05/05","15:00",0.0,24.9,28.5,1007.6,8.9,2.7,5.8,13.4,0.41,5.5,21.2,"14:54:24",1
"16/05/05","15:10",0.0,24.9,30.9,1007.1,305.1,1.8,3.7,336.5,0.37,6.6,21.2,"15:02:08",1
"16/05/05","15:20",0.0,25.0,29.0,1007.4,293.5,1.5,2.9,301.0,0.36,5.8,21.3,"15:14:16",1
"16/05/05","15:30",0.0,24.4,31.6,1007.8,339.7,2.1,4.7,353.8,0.32,6.5,21.2,"15:25:28",1
"16/05/05","15:40",0.0,24.7,30.3,1007.6,340.3,2.1,4.9,354.2,0.32,6.2,21.2,"15:39:44",1
"16/05/05","15:50",0.0,25.0,28.5,1007.6,313.1,1.5,3.9,10.4,0.29,5.5,21.3,"15:49:04",1
"16/05/05","16:00",0.0,24.8,28.1,1008.1,315.6,2.3,5.1,313.2,0.25,5.2,21.4,"15:51:36",1
"16/05/05","16:10",0.0,24.5,27.5,1008.1,337.2,2.3,6.5,350.5,0.23,4.6,21.2,"16:05:04",1
"16/05/05","16:20",0.0,24.5,26.8,1007.8,306.4,1.6,3.1,1.7,0.23,4.2,21.2,"16:19:28",1
"16/05/05","16:30",0.0,24.5,28.3,1008.3,327.2,1.5,4.0,356.6,0.22,5.0,21.2,"16:21:36",1
"16/05/05","16:40",0.0,24.3,28.8,1008.3,336.5,1.7,4.4,232.2,0.16,5.1,21.1,"16:33:20",1
"16/05/05","16:50",0.0,24.0,28.2,1008.3,347.7,1.6,3.4,350.7,0.13,4.5,21.2,"16:48:56",1
"16/05/05","17:00",0.0,23.1,26.8,1008.6,339.0,2.3,4.2,331.9,0.06,3.0,21.1,"16:51:36",1
"16/05/05","17:10",0.0,22.8,27.3,1009.0,336.1,2.1,3.3,342.8,0.06,3.0,20.9,"17:03:12",1
"16/05/05","17:20",0.0,22.6,29.6,1008.8,325.6,1.6,2.5,345.8,0.06,4.0,20.8,"17:15:52",1
"16/05/05","17:30",0.0,22.6,29.7,1009.3,331.5,1.3,3.2,342.8,0.05,4.1,20.8,"17:26:00",1
"16/05/05","17:40",0.0,22.2,31.0,1009.3,347.8,1.8,3.5,343.2,0.04,4.3,20.7,"17:32:08",1
"16/05/05","17:50",0.0,21.8,33.5,1009.5,341.8,1.8,3.4,341.2,0.03,5.1,20.7,"17:45:12",1
"16/05/05","18:00",0.0,21.3,34.0,1009.5,343.6,2.1,3.4,341.9,0.02,4.9,20.6,"17:50:16",1
"16/05/05","18:10",0.0,20.9,34.4,1009.7,350.3,1.8,3.1,341.5,0.01,4.7,20.3,"18:03:28",1
"16/05/05","18:20",0.0,20.5,35.4,1010.2,352.8,2.1,4.3,338.7,0.00,4.7,20.3,"18:16:00",1
"16/05/05","18:30",0.0,20.1,36.1,1010.2,349.1,2.1,3.5,350.8,0.00,4.7,20.1,"18:24:32",1
"16/05/05","18:40",0.0,19.9,36.6,1010.7,348.8,2.6,6.0,353.5,0.00,4.7,20.1,"18:33:20",1
"16/05/05","18:50",0.0,19.3,38.4,1010.4,339.7,2.6,4.9,342.1,0.00,4.8,19.9,"18:42:08",1
"16/05/05","19:00",0.0,18.7,41.0,1010.4,332.2,2.0,4.1,345.3,0.00,5.2,19.7,"18:54:08",1
"16/05/05","19:10",0.0,17.9,44.8,1010.7,328.8,1.8,3.1,330.5,0.00,5.8,19.6,"19:02:56",1
"16/05/05","19:20",0.0,17.3,46.5,1011.2,330.1,1.7,3.3,346.3,0.00,5.8,19.6,"19:10:24",1
"16/05/05","19:30",0.0,17.0,46.3,1010.9,328.3,1.7,2.5,337.3,0.00,5.4,19.5,"19:21:52",1
"16/05/05","19:40",0.0,17.2,44.7,1011.2,310.2,1.7,3.4,306.7,0.00,5.1,19.2,"19:34:56",1
"16/05/05","19:50",0.0,17.0,45.5,1011.9,306.0,1.3,2.4,312.8,0.00,5.2,19.1,"19:47:28",1
"16/05/05","20:00",0.0,17.1,44.4,1012.3,311.4,2.3,3.6,314.9,0.00,4.9,19.1,"19:59:52",1
"16/05/05","20:10",0.0,17.2,44.1,1011.9,319.8,2.8,3.7,317.3,0.00,4.9,19.0,"20:09:04",1
"16/05/05","20:20",0.0,17.1,42.4,1012.1,326.4,2.5,4.3,344.8,0.00,4.3,19.0,"20:19:20",1
"16/05/05","20:30",0.0,17.1,42.3,1011.9,325.4,2.1,4.1,334.6,0.00,4.2,18.7,"20:22:40",1
"16/05/05","20:40",0.0,16.9,43.3,1012.3,326.9,0.8,2.1,323.6,0.00,4.4,18.7,"20:30:40",1
"16/05/05","20:50",0.0,16.6,44.4,1012.6,238.4,0.7,1.4,211.4,0.00,4.5,18.5,"20:44:24",1
"16/05/05","21:00",0.0,16.3,46.2,1012.8,223.4,0.7,2.8,214.9,0.00,4.8,18.4,"20:51:44",1
"16/05/05","21:10",0.0,16.1,45.9,1013.0,311.2,1.0,1.8,330.7,0.00,4.5,18.5,"21:05:04",1
"16/05/05","21:20",0.0,15.8,49.9,1013.0,293.7,1.0,1.8,315.9,0.00,5.4,18.5,"21:18:40",1
"16/05/05","21:30",0.0,15.1,53.3,1013.0,310.4,1.3,2.2,337.2,0.00,5.7,18.3,"21:24:16",1
"16/05/05","21:40",0.0,14.7,55.5,1013.0,309.2,1.2,2.0,335.4,0.00,5.9,18.2,"21:34:00",1
"16/05/05","21:50",0.0,14.3,55.7,1012.8,285.6,1.0,1.3,304.9,0.00,5.6,18.2,"21:49:28",1
"16/05/05","22:00",0.0,14.2,56.0,1012.8,294.1,1.2,2.1,309.1,0.00,5.6,18.0,"21:59:44",1
"16/05/05","22:10",0.0,14.1,56.6,1012.6,293.6,1.2,2.2,315.1,0.00,5.7,18.2,"22:00:08",1
"16/05/05","22:20",0.0,14.0,57.1,1012.6,299.8,1.3,1.8,325.3,0.00,5.7,17.9,"22:14:48",1
"16/05/05","22:30",0.0,14.0,56.2,1012.6,300.6,1.3,1.9,333.8,0.00,5.5,17.7,"22:23:36",1
"16/05/05","22:40",0.0,14.0,57.3,1012.6,299.9,1.2,1.7,296.1,0.00,5.7,17.8,"22:30:56",1
"16/05/05","22:50",0.0,13.6,61.6,1012.3,318.1,1.5,1.8,314.6,0.00,6.4,17.8,"22:45:04",1
"16/05/05","23:00",0.0,13.3,61.7,1012.3,297.5,1.0,1.4,329.6,0.00,6.2,17.7,"22:50:24",1
"16/05/05","23:10",0.0,13.3,61.2,1012.3,305.3,1.2,1.8,335.1,0.00,6.0,17.4,"23:02:56",1
"16/05/05","23:20",0.0,13.2,60.3,1012.3,289.9,1.0,1.4,308.8,0.00,5.7,17.4,"23:10:02",1
"16/05/05","23:30",0.0,13.0,61.0,1012.1,291.7,1.0,1.4,304.4,0.00,5.7,17.5,"23:20:08",1
"16/05/05","23:40",0.0,13.0,61.6,1012.1,292.0,1.2,1.6,296.1,0.00,5.8,17.3,"23:35:28",1
"16/05/05","23:50",0.0,13.0,61.8,1012.3,298.9,1.2,1.7,313.0,0.00,5.9,17.4,"23:42:48",1
"16/05/05","24:00",0.0,13.0,61.3,1012.3,308.1,1.6,2.1,313.1,0.00,5.8,17.2,"23:54:00",1
